Stations météo

réclame
Mon MeteoGroup
Oostende Airport, Belgique (6407): Température de l'air & dewpoint: 18.08.2019 00:00:00 - 24.08.2019 00:00:00 (CEST)Oostende Airport, Belgique (6407): Vitesse du vent & gusts: 18.08.2019 00:00:00 - 24.08.2019 00:00:00 (CEST)Oostende Airport, Belgique (6407): Direction du vent: 18.08.2019 00:00:00 - 24.08.2019 00:00:00 (CEST)Oostende Airport, Belgique (6407): reduced air pressure: 18.08.2019 00:00:00 - 24.08.2019 00:00:00 (CEST)Oostende Airport, Belgique (6407): visibility: 18.08.2019 00:00:00 - 24.08.2019 00:00:00 (CEST)
Date & Time tt [°C] td [°C] ff [km/h] ff [knt] fx [km/h] fx [knt] dd ppp [hPa] vv [km]
24.08.2019 00:00:00 16,4 12,6 11 6 18 10 E 1022,9 10
23.08.2019 23:00:00 18,1 13,4 13 7 - - ENE 1023,1 10
23.08.2019 22:00:00 18,9 14,1 11 6 18 10 ENE 1023,3 10
23.08.2019 21:00:00 19,6 14,3 13 7 22 12 NE 1023,4 10
23.08.2019 20:00:00 20,8 14,5 15 8 - - NE 1023,4 10
23.08.2019 19:00:00 21,4 14,1 18 10 29 16 NE 1023,8 10
23.08.2019 18:00:00 22,4 13,9 16 9 25 14 NE 1024,4 10
23.08.2019 17:00:00 22,4 12,5 18 10 - - NE 1024,7 10
23.08.2019 16:00:00 21,8 13,2 15 8 22 12 N 1025,1 10
23.08.2019 15:00:00 20,3 13,8 16 9 22 12 NNE 1025,5 10
23.08.2019 14:00:00 21,1 13,4 13 7 - - N 1025,9 10
23.08.2019 13:00:00 22,4 10,4 4 2 14 8 - 1026,2 25
23.08.2019 12:00:00 21,0 13,7 0 0 11 6 N 1026,6 10
23.08.2019 11:00:00 18,5 14,1 5 3 - - SW 1026,8 10
23.08.2019 10:00:00 15,7 12,4 4 2 7 4 - 1026,7 10
23.08.2019 09:00:00 13,1 10,6 8 4 7 4 SSE 1026,4 10
23.08.2019 08:00:00 10,7 9,0 2 1 - - - 1026,4 10
23.08.2019 07:00:00 9,1 7,7 4 2 7 4 S 1026,0 8
23.08.2019 06:00:00 9,0 7,6 4 2 7 4 S 1026,0 8
23.08.2019 05:00:00 9,3 7,9 4 2 - - S 1026,2 10
23.08.2019 04:00:00 9,6 7,7 5 3 11 6 S 1026,3 10
23.08.2019 03:00:00 9,8 7,9 8 4 11 6 SSE 1026,4 10
23.08.2019 02:00:00 10,9 8,4 5 3 - - SSW 1026,4 10
23.08.2019 01:00:00 11,3 8,6 9 5 11 6 SSW 1026,3 10
23.08.2019 00:00:00 11,4 8,8 7 4 11 6 SSW 1026,4 20
22.08.2019 23:00:00 12,4 7,8 2 1 - - - 1026,5 10
22.08.2019 22:00:00 13,2 9,3 8 4 11 6 SW 1026,4 10
22.08.2019 21:00:00 15,1 11,3 9 5 25 14 SW 1025,7 10
22.08.2019 20:00:00 18,3 11,0 21 11 - - W 1025,9 10
22.08.2019 19:00:00 18,9 10,8 25 14 32 18 W 1025,7 28
22.08.2019 18:00:00 19,5 11,5 21 11 29 16 W 1026,0 10
22.08.2019 17:00:00 19,6 11,3 18 10 - - WNW 1026,1 10
22.08.2019 16:00:00 19,6 11,0 18 10 25 14 WNW 1026,2 10
22.08.2019 15:00:00 19,6 12,7 18 10 29 16 WNW 1026,5 10
22.08.2019 14:00:00 18,9 11,4 18 10 - - WNW 1026,8 10
22.08.2019 13:00:00 19,2 11,1 16 9 25 14 WNW 1027,0 10
22.08.2019 12:00:00 18,6 12,1 16 9 22 12 WNW 1026,9 10
22.08.2019 11:00:00 17,5 12,4 15 8 - - W 1026,6 10
22.08.2019 10:00:00 17,6 13,7 14 8 22 12 W 1026,6 12
22.08.2019 09:00:00 12,7 11,1 4 2 7 4 - 1026,3 9
22.08.2019 08:00:00 10,3 8,9 4 2 - - SW 1026,0 9
22.08.2019 07:00:00 8,6 7,2 4 2 7 4 SSW 1025,5 2,0
22.08.2019 06:00:00 9,0 8,2 4 2 7 4 S 1025,3 3,5
22.08.2019 05:00:00 8,9 7,9 5 3 - - S 1025,4 4,5
22.08.2019 04:00:00 9,5 8,3 2 1 7 4 - 1025,5 5
22.08.2019 03:00:00 10,7 9,6 5 3 7 4 ESE 1025,7 5
22.08.2019 02:00:00 11,1 10,3 0 0 - - N 1026,2 6
22.08.2019 01:00:00 11,7 10,4 4 2 4 2 SE 1026,4 10
22.08.2019 00:00:00 11,9 10,4 2 1 4 2 NNW 1026,8 10
21.08.2019 23:00:00 15,2 11,4 2 1 - - NNE 1026,9 10
21.08.2019 22:00:00 15,8 11,2 5 3 14 8 NE 1027,0 10
21.08.2019 21:00:00 16,4 11,9 8 4 18 10 NNE 1026,7 10
21.08.2019 20:00:00 18,1 11,6 13 7 - - NNE 1026,7 10
21.08.2019 19:00:00 18,9 10,9 15 8 22 12 NNE 1027,0 10
21.08.2019 18:00:00 19,3 11,8 15 8 22 12 NNE 1027,3 10
21.08.2019 17:00:00 19,6 11,1 15 8 - - N 1027,5 10
21.08.2019 16:00:00 19,8 10,8 14 8 18 10 N 1027,8 17
21.08.2019 15:00:00 19,7 11,9 13 7 22 12 NNW 1028,2 10
21.08.2019 14:00:00 19,6 12,4 9 5 - - NNW 1028,4 10
21.08.2019 13:00:00 20,3 11,3 5 3 18 10 - 1028,8 10
21.08.2019 12:00:00 19,5 10,2 8 4 14 8 SW 1029,1 10
21.08.2019 11:00:00 18,6 13,3 2 1 - - - 1029,0 10
21.08.2019 10:00:00 15,5 13,1 4 2 7 4 - 1029,0 10
21.08.2019 09:00:00 12,2 10,8 4 2 7 4 - 1028,8 7
21.08.2019 08:00:00 9,7 8,7 2 1 - - - 1028,4 3,5
21.08.2019 07:00:00 8,4 7,8 4 2 7 4 SW 1028,0 2,0
21.08.2019 06:00:00 8,4 7,5 5 3 7 4 S 1027,6 3,5
21.08.2019 05:00:00 8,5 7,6 4 2 - - S 1027,4 4,8
21.08.2019 04:00:00 8,4 7,4 4 2 7 4 S 1027,4 10
21.08.2019 03:00:00 9,0 8,0 4 2 7 4 - 1027,3 10
21.08.2019 02:00:00 10,1 8,8 5 3 - - SSW 1027,3 10
21.08.2019 01:00:00 10,4 8,9 8 4 11 6 SSW 1027,2 10
21.08.2019 00:00:00 11,0 9,2 7 4 14 8 SSW 1027,2 12
20.08.2019 23:00:00 11,6 9,6 13 7 - - SW 1027,0 10
20.08.2019 22:00:00 13,8 11,1 11 6 29 16 SW 1026,7 10
20.08.2019 21:00:00 16,1 11,8 21 11 32 18 W 1026,1 10
20.08.2019 20:00:00 17,4 10,9 26 14 - - W 1025,7 10
20.08.2019 19:00:00 18,1 10,8 26 14 32 18 W 1025,4 10
20.08.2019 18:00:00 18,5 11,0 26 14 31 17 W 1025,0 10
20.08.2019 17:00:00 18,6 10,8 26 14 - - W 1024,7 10
20.08.2019 16:00:00 18,9 11,8 24 13 32 18 W 1024,4 10
20.08.2019 15:00:00 18,6 12,0 22 12 32 18 WNW 1024,1 10
20.08.2019 14:00:00 18,3 12,1 24 13 - - W 1023,8 10
20.08.2019 13:00:00 18,2 10,9 26 14 36 19 W 1023,4 10
20.08.2019 12:00:00 17,6 10,0 26 14 40 21 W 1023,2 10
20.08.2019 11:00:00 16,2 11,2 21 11 - - WSW 1023,0 10
20.08.2019 10:00:00 16,5 12,8 15 8 18 10 WSW 1022,4 10
20.08.2019 09:00:00 14,0 11,9 13 7 22 12 SW 1022,1 10
20.08.2019 08:00:00 11,5 10,2 11 6 - - SSW 1021,7 10
20.08.2019 07:00:00 10,3 9,0 9 5 14 8 SSW 1020,9 10
20.08.2019 06:00:00 10,7 9,3 9 5 14 8 SSW 1020,5 10
20.08.2019 05:00:00 10,8 9,5 11 6 - - SSW 1020,5 10
20.08.2019 04:00:00 10,9 9,4 11 6 18 10 SSW 1020,3 10
20.08.2019 03:00:00 11,6 10,0 13 7 18 10 SW 1020,3 10
20.08.2019 02:00:00 11,3 9,9 13 7 - - SSW 1020,0 10
20.08.2019 01:00:00 12,2 10,3 16 9 22 12 SW 1019,8 10
20.08.2019 00:00:00 12,4 10,3 13 7 22 12 SW 1019,4 10
19.08.2019 23:00:00 13,1 10,6 15 8 - - SW 1019,2 10
19.08.2019 22:00:00 14,6 10,7 21 11 29 16 SW 1018,9 10
19.08.2019 21:00:00 15,7 9,9 21 11 36 19 WSW 1018,4 10
19.08.2019 20:00:00 17,2 10,1 21 11 - - WSW 1018,2 10
19.08.2019 19:00:00 18,5 10,0 31 17 50 27 WSW 1017,7 10
19.08.2019 18:00:00 19,6 12,2 31 17 50 27 W 1017,4 10
19.08.2019 17:00:00 19,6 11,4 34 18 - - W 1017,2 10
19.08.2019 16:00:00 18,9 11,7 31 17 50 27 W 1016,9 10
19.08.2019 15:00:00 19,4 13,3 31 17 47 25 W 1016,7 10
19.08.2019 14:00:00 19,1 12,6 29 16 - - W 1016,2 10
19.08.2019 13:00:00 19,5 12,9 28 15 47 25 W 1015,9 10
19.08.2019 12:00:00 18,5 13,2 24 13 47 25 WSW 1015,4 10
19.08.2019 11:00:00 14,4 12,3 28 15 - - W 1015,2 10
19.08.2019 10:00:00 16,7 13,1 26 14 36 19 SW 1014,6 10
19.08.2019 09:00:00 14,4 12,2 21 11 29 16 SSW 1014,1 10
19.08.2019 08:00:00 12,6 10,9 18 10 - - SSW 1013,9 10
19.08.2019 07:00:00 12,5 10,9 11 6 25 14 SSW 1013,4 10
19.08.2019 06:00:00 12,4 10,8 15 8 25 14 SW 1013,1 10
19.08.2019 05:00:00 12,3 10,6 15 8 - - SW 1012,6 10
19.08.2019 04:00:00 12,7 10,9 16 9 25 14 SSW 1012,4 10
19.08.2019 03:00:00 12,3 10,5 16 9 22 12 SSW 1012,2 10
19.08.2019 02:00:00 12,5 10,7 15 8 - - SSW 1011,8 10
19.08.2019 01:00:00 12,9 10,8 15 8 25 14 SW 1011,6 10
19.08.2019 00:00:00 13,1 10,9 15 8 22 12 SW 1011,1 10
18.08.2019 23:00:00 13,6 10,9 15 8 - - SW 1010,6 10
18.08.2019 22:00:00 14,4 10,9 18 10 36 19 SW 1010,0 10
18.08.2019 21:00:00 15,7 10,4 22 12 43 23 WSW 1009,8 10
18.08.2019 20:00:00 17,5 10,0 29 16 - - SW 1009,3 10
18.08.2019 19:00:00 18,7 11,4 28 15 50 27 WSW 1008,9 10
18.08.2019 18:00:00 19,6 13,2 29 16 50 27 WSW 1008,6 10
18.08.2019 17:00:00 19,9 12,6 29 16 - - WSW 1007,7 10
18.08.2019 16:00:00 19,3 13,4 24 13 36 19 WSW 1007,3 10
18.08.2019 15:00:00 19,1 14,0 24 13 32 18 W 1007,1 10
18.08.2019 14:00:00 17,7 14,1 21 11 - - W 1006,5 10
18.08.2019 13:00:00 17,1 13,9 13 7 22 12 W 1005,9 10
18.08.2019 12:00:00 16,3 13,6 11 6 18 10 WNW 1005,3 10
18.08.2019 11:00:00 16,3 13,3 11 6 - - WSW 1004,8 10
18.08.2019 10:00:00 14,7 13,0 11 6 14 8 WSW 1004,6 10
18.08.2019 09:00:00 14,6 12,9 8 4 18 10 S 1004,2 9
18.08.2019 08:00:00 14,4 12,9 11 6 - - S 1004,3 10
18.08.2019 07:00:00 14,6 13,3 15 8 29 16 S 1004,7 10
18.08.2019 06:00:00 14,9 13,5 16 9 25 14 S 1005,4 10
18.08.2019 05:00:00 15,2 13,6 16 9 - - SSW 1005,9 10
18.08.2019 04:00:00 15,3 13,6 15 8 22 12 SSW 1006,5 10
18.08.2019 03:00:00 15,3 4,6 13 7 18 10 SSW 1007,1 10
18.08.2019 02:00:00 15,2 13,3 13 7 - - SSW 1007,2 10
18.08.2019 01:00:00 15,1 13,2 15 8 22 12 SSW 1007,5 10
18.08.2019 00:00:00 15,1 13,0 13 7 22 12 SSW 1007,4 10

tt = Température de l'air
td = dewpoint
ff = Vitesse du vent
fx = gusts
dd = Direction du vent
ppp = reduced air pressure
vv = visibility

stations d'obs. à proximité